Wind_Speed
7 8 9 10 11 12 14 15 16 16 17 17 17 17 18 19 19 19 19 20 20 21 21 21 21 22 22 23 23 23 23 24 25 25 25 25 26 26 27 27 28 29 30
9 9 9 11 12 12 13 15 16 17 18 18 18 18 18 19 20 20 20 21 21 21 22 22 22 23 23 24 24 25 26 26 26 27 27 27 28 29 30 31 31 32 32
9 10 10 11 12 13 15 16 17 18 18 19 19 20 20 20 21 21 21 22 23 23 24 24 24 24 25 26 26 27 27 28 29 29 29 30 31 32 33 33 33 34 35
11 11 11 12 13 14 15 15 17 19 19 20 20 20 21 22 22 22 23 23 24 25 25 26 26 26 27 27 28 28 29 30 30 31 32 32 33 34 35 35 35 36 36
12 12 12 12 13 14 15 16 17 18 20 21 21 22 23 23 24 25 25 24 25 26 27 27 27 28 28 28 29 29 30 31 32 33 34 35 36 36 37 37 38 38 38
12 13 13 13 13 14 15 16 18 18 20 21 23 24 23 24 24 25 26 26 27 28 29 29 28 29 30 30 31 32 32 32 33 35 35 36 37 38 39 39 40 42 43
13 14 14 14 15 16 16 17 18 19 20 21 23 24 26 26 26 27 27 27 28 29 29 29 29 30 31 32 33 34 34 34 34 35 37 38 39 39 41 42 44 45 46
14 15 15 16 16 17 18 18 18 19 20 21 22 24 25 25 25 26 27 28 28 28 28 29 31 32 32 33 34 35 35 36 36 37 38 39 40 42 43 45 46 48 49
17 17 18 17 17 18 18 19 18 19 19 19 20 21 23 24 25 26 27 27 27 28 29 30 31 32 33 34 35 36 37 38 38 38 39 41 43 43 44 46 47 48 50
20 20 20 20 20 20 20 20 20 20 20 20 20 21 22 23 25 26 27 27 28 29 30 31 32 33 34 34 35 36 37 38 39 40 42 43 44 45 46 48 49 51 52
21 21 21 21 21 22 22 22 23 22 22 22 23 24 24 24 25 25 26 27 28 29 31 32 33 33 34 35 36 37 38 40 42 43 44 45 46 48 49 51 52 54 55
23 22 22 23 23 23 24 24 25 25 25 23 24 24 25 25 25 26 27 28 29 30 31 33 34 34 36 37 38 39 40 42 44 45 46 48 49 50 52 53 54 56 57
25 24 23 24 24 25 25 25 25 25 25 25 25 25 26 26 27 28 28 29 30 31 33 35 36 37 38 39 40 41 42 44 45 46 47 48 50 51 53 54 56 57 58
26 25 25 25 26 26 26 25 25 26 27 27 27 27 27 28 29 30 30 31 32 33 35 36 37 38 39 40 42 42 43 44 45 46 48 49 51 52 53 54 55 55 55
26 27 26 26 27 26 26 26 26 27 27 26 26 28 28 29 30 31 32 32 33 34 35 36 38 39 40 41 42 43 44 45 46 46 47 49 50 51 51 51 51 52 52
26 27 27 28 26 26 26 26 26 27 27 27 28 29 29 30 31 32 32 33 34 35 36 37 38 39 40 41 42 43 44 45 45 46 47 48 48 49 49 49 49 49 49
27 27 26 26 25 25 25 25 25 26 27 28 28 28 30 30 31 32 33 34 35 36 36 37 37 38 39 40 41 42 43 43 44 45 45 46 46 46 46 46 46 46 46
26 25 25 25 25 25 25 25 26 27 27 27 28 29 30 31 32 32 33 34 35 35 35 36 36 37 38 39 40 41 42 42 43 43 44 44 44 44 44 44 43 43 43
24 24 24 24 25 25 24 25 26 27 27 27 28 29 30 31 32 33 34 35 36 35 34 35 36 37 38 39 39 40 40 41 41 41 41 41 42 42 41 41 40 39 39
23 23 24 24 24 24 24 24 25 25 25 26 28 29 30 32 32 33 34 34 33 33 34 34 35 36 36 37 37 38 38 38 39 39 39 39 38 38 37 37 36 36 35
22 22 22 23 23 23 23 23 23 24 25 27 28 30 31 31 32 32 32 31 31 32 33 34 34 34 34 35 35 35 36 36 36 36 36 35 35 35 34 34 33 33 32
21 21 21 21 21 20 21 22 24 25 26 27 28 29 30 30 30 30 30 30 31 32 31 31 32 32 32 33 33 33 34 34 33 33 33 33 33 32 32 31 31 30 30
18 18 18 18 19 21 22 23 24 25 25 26 27 27 27 28 28 28 28 29 29 29 29 30 30 30 31 31 31 31 31 31 31 31 31 31 31 31 30 30 29 29 28
14 15 16 18 19 20 21 23 24 24 25 25 25 26 26 26 27 27 27 27 27 27 28 28 28 29 29 29 29 29 29 29 29 29 29 29 30 29 29 28 28 27 27
15 16 18 19 21 22 23 24 24 25 25 25 25 25 25 26 26 26 25 25 26 26 27 27 27 27 27 27 27 27 27 27 27 28 28 28 28 28 27 27 27 27 27
17 18 20 21 22 23 24 24 24 24 24 24 24 24 24 24 24 24 24 24 24 25 25 25 25 25 25 25 25 25 25 25 26 26 27 27 27 27 27 26 26 26 26
Wind_Direction
242 246 250 247 243 239 237 234 233 232 233 236 238 240 241 241 242 244 248 251 253 255 258 260 262 266 269 269 270 271 273 275 278 279 279 277 278 278 280 279 279 279 279
251 254 256 253 248 246 245 241 238 236 237 239 240 243 244 246 247 249 251 255 258 261 261 262 264 266 268 270 272 274 274 275 278 280 279 278 278 279 281 282 282 282 282
258 258 258 256 253 253 250 247 243 242 243 243 244 244 248 250 251 252 254 258 261 262 263 265 266 267 269 271 273 275 275 275 277 278 278 279 278 279 280 281 282 282 282
264 260 260 257 256 257 254 251 249 246 248 249 250 251 253 254 255 256 257 260 262 264 265 267 268 269 270 271 273 274 275 275 276 277 277 277 278 279 280 281 281 281 282
269 263 263 261 258 258 257 256 254 252 251 252 254 256 256 256 258 259 260 262 265 267 268 268 268 268 270 272 274 275 276 275 276 276 277 278 279 279 280 281 281 282 282
270 264 264 265 263 262 263 261 258 256 255 256 256 257 256 258 258 259 261 264 267 268 269 271 269 269 271 273 275 276 277 277 277 278 278 279 279 279 280 281 281 282 282
270 264 265 268 267 264 265 265 262 259 259 258 258 259 259 261 262 263 263 265 268 270 272 273 273 273 275 274 275 276 276 278 278 279 280 280 280 281 282 283 282 283 284
272 268 268 268 268 268 266 266 266 264 263 263 261 261 263 264 265 265 267 270 272 273 273 274 275 275 275 276 276 277 277 278 279 281 282 283 284 284 284 284 284 284 285
272 271 270 269 269 268 269 270 268 266 265 265 266 267 267 267 267 268 271 274 275 276 274 275 276 277 277 278 279 279 281 282 282 283 284 285 286 286 286 287 287 286 286
271 271 271 269 268 268 268 270 270 270 267 267 269 271 271 271 270 270 272 275 276 276 276 278 278 279 279 279 280 281 283 284 285 286 286 286 287 288 288 289 289 288 288
268 271 271 270 268 267 267 268 269 270 270 270 271 272 272 272 273 273 275 277 278 279 279 281 281 281 282 282 283 284 285 286 287 288 288 288 289 289 289 290 290 289 289
267 270 271 269 269 269 268 269 269 270 272 271 273 276 274 272 274 275 277 278 280 281 281 281 282 283 285 287 287 288 288 289 289 290 290 291 291 291 292 292 292 291 291
266 268 270 270 269 270 272 273 272 271 273 273 273 274 274 274 277 278 278 280 282 282 283 285 286 287 288 289 289 290 291 292 292 292 292 293 294 295 295 295 295 295 295
265 267 269 271 271 272 273 274 273 274 275 275 274 273 274 275 277 278 279 281 282 283 286 288 288 288 288 289 291 293 294 294 295 295 295 296 297 298 298 298 298 298 297
267 268 268 269 270 269 271 272 273 274 273 274 274 275 276 278 280 282 284 285 286 287 288 289 290 290 291 293 294 295 296 297 297 298 298 299 300 301 300 301 301 300 299
267 268 267 267 267 269 270 269 270 272 272 273 275 276 279 282 284 285 286 288 289 290 290 291 292 293 294 295 296 298 299 300 300 301 301 302 303 302 302 302 302 301 301
267 268 267 266 268 269 269 269 270 272 274 277 279 281 282 283 284 286 288 290 292 292 292 293 295 296 298 299 300 301 302 302 303 303 304 304 304 304 303 303 303 303 303
269 269 270 269 269 269 269 269 271 274 276 279 281 283 284 285 286 288 290 292 293 294 295 296 298 299 300 301 302 303 304 304 305 305 305 305 305 305 305 305 305 304 304
268 269 269 269 268 269 270 271 274 277 279 281 283 285 288 289 290 291 292 293 294 295 296 298 300 301 302 303 304 305 306 306 307 307 308 308 308 307 307 307 307 307 307
268 270 270 270 270 270 271 275 276 277 281 283 284 287 290 292 292 293 294 295 296 297 298 300 301 302 304 305 307 307 308 309 309 310 310 310 311 311 311 311 310 310 311
271 273 273 272 273 274 273 276 278 282 284 286 289 291 293 294 296 297 297 298 299 300 300 301 303 305 306 307 309 310 310 311 312 312 313 313 314 314 315 314 314 314 314
271 270 271 274 275 274 277 281 284 287 290 292 294 295 297 298 299 300 301 301 301 302 303 304 306 307 308 309 310 311 312 313 314 315 316 316 317 317 317 317 318 319 318
272 274 275 278 281 283 285 288 291 292 294 296 298 299 301 301 302 302 303 303 304 305 306 306 307 308 310 311 312 313 314 315 316 318 319 319 320 320 320 320 320 321 321
278 282 285 287 289 290 291 294 296 298 299 301 302 303 303 304 304 304 304 305 306 307 307 308 309 310 311 313 314 315 316 318 318 320 321 322 323 323 323 322 323 323 324
286 288 290 292 293 294 296 297 299 300 301 302 303 304 304 304 305 305 305 306 306 306 307 308 310 311 313 314 316 317 319 320 321 322 324 325 325 325 325 326 326 326 326
291 293 295 296 298 298 298 299 299 300 301 302 303 303 304 304 304 305 305 305 306 307 309 310 311 313 314 316 318 319 321 323 324 326 327 328 328 329 329 328 328 328 328
Height
5848 5849 5850 5850 5851 5852 5852 5854 5855 5856 5858 5859 5860 5862 5863 5864 5866 5867 5867 5868 5869 5869 5869 5870 5870 5870 5870 5869 5869 5869 5868 5867 5867 5865 5864 5864 5862 5861 5860 5859 5858 5857 5856
5846 5847 5847 5848 5848 5849 5849 5850 5851 5853 5854 5855 5856 5858 5859 5860 5861 5862 5863 5863 5864 5864 5864 5865 5865 5864 5864 5863 5863 5863 5862 5861 5860 5859 5858 5857 5855 5854 5853 5852 5850 5849 5847
5844 5845 5845 5845 5845 5846 5847 5847 5848 5849 5850 5851 5852 5853 5855 5856 5856 5857 5858 5858 5858 5859 5859 5858 5858 5858 5857 5857 5857 5856 5855 5854 5853 5852 5851 5849 5848 5846 5845 5844 5842 5840 5838
5842 5842 5842 5843 5843 5843 5843 5844 5844 5845 5846 5847 5848 5849 5850 5850 5851 5852 5852 5852 5852 5852 5852 5852 5852 5851 5851 5850 5850 5849 5848 5847 5845 5844 5843 5841 5840 5838 5836 5835 5833 5831 5829
5839 5839 5839 5839 5840 5840 5840 5840 5840 5841 5842 5843 5843 5844 5845 5845 5845 5846 5846 5846 5846 5846 5845 5845 5844 5844 5844 5843 5843 5841 5840 5839 5837 5836 5834 5833 5831 5829 5827 5825 5823 5821 5819
5836 5836 5837 5837 5837 5837 5837 5837 5837 5837 5837 5838 5838 5839 5839 5839 5840 5840 5840 5840 5840 5839 5839 5838 5837 5837 5836 5836 5835 5833 5832 5830 5829 5827 5825 5823 5821 5820 5818 5816 5813 5811 5809
5833 5833 5833 5834 5833 5833 5833 5833 5833 5832 5832 5832 5832 5833 5833 5833 5834 5834 5834 5833 5833 5832 5832 5831 5830 5829 5828 5827 5826 5824 5823 5821 5820 5818 5816 5814 5812 5810 5808 5805 5802 5799 5797
5830 5830 5830 5830 5829 5829 5829 5828 5828 5828 5827 5827 5827 5827 5827 5827 5827 5827 5827 5826 5825 5824 5824 5823 5822 5821 5819 5818 5817 5815 5813 5812 5810 5808 5806 5803 5801 5798 5796 5793 5790 5787 5784
5826 5825 5825 5825 5825 5825 5824 5824 5823 5823 5822 5822 5822 5822 5821 5821 5821 5821 5820 5819 5818 5817 5816 5815 5813 5812 5811 5809 5807 5806 5804 5802 5799 5797 5794 5792 5789 5786 5783 5780 5777 5774 5770
5821 5820 5820 5820 5820 5819 5819 5819 5819 5818 5818 5817 5817 5816 5816 5815 5814 5814 5813 5812 5811 5810 5808 5807 5805 5803 5801 5799 5798 5796 5794 5791 5789 5786 5783 5781 5778 5774 5771 5767 5763 5759 5755
5815 5815 5815 5814 5814 5814 5814 5813 5813 5813 5812 5811 5811 5810 5810 5809 5808 5807 5806 5805 5803 5802 5800 5798 5796 5794 5792 5790 5788 5786 5783 5781 5778 5775 5771 5768 5765 5761 5757 5753 5749 5744 5739
5809 5809 5809 5808 5808 5808 5808 5807 5807 5806 5806 5805 5805 5804 5803 5802 5801 5800 5799 5797 5796 5794 5792 5790 5788 5786 5783 5781 5778 5776 5772 5769 5766 5762 5759 5755 5751 5746 5742 5737 5732 5727 5722
5803 5803 5802 5802 5802 5801 5801 5800 5800 5799 5799 5798 5797 5797 5796 5794 5793 5792 5791 5789 5788 5786 5784 5781 5779 5776 5774 5771 5768 5765 5762 5758 5754 5749 5745 5741 5736 5731 5726 5721 5716 5711 5705
5796 5796 5796 5795 5795 5794 5794 5794 5793 5792 5792 5791 5790 5789 5788 5787 5786 5784 5782 5781 5779 5777 5774 5772 5769 5767 5764 5760 5757 5753 5750 5746 5741 5737 5732 5727 5722 5717 5712 5706 5700 5694 5689
5788 5788 5788 5788 5788 5787 5787 5787 5786 5786 5785 5784 5783 5782 5780 5779 5778 5776 5774 5772 5770 5767 5765 5762 5759 5757 5753 5749 5746 5742 5738 5733 5729 5724 5719 5714 5708 5702 5697 5691 5685 5679 5673
5781 5781 5781 5780 5780 5780 5780 5780 5779 5779 5778 5777 5775 5774 5772 5771 5769 5767 5765 5763 5761 5758 5755 5752 5749 5745 5742 5738 5734 5730 5725 5721 5716 5711 5706 5700 5694 5688 5683 5677 5671 5666 5660
5774 5774 5773 5773 5773 5773 5773 5772 5772 5771 5770 5769 5767 5766 5764 5762 5760 5758 5756 5753 5751 5748 5745 5741 5738 5734 5731 5727 5723 5718 5713 5709 5703 5698 5693 5687 5681 5676 5670 5664 5658 5653 5647
5767 5767 5767 5766 5766 5766 5766 5765 5764 5763 5762 5760 5759 5757 5756 5754 5752 5749 5747 5744 5741 5737 5734 5731 5727 5724 5720 5716 5711 5707 5702 5697 5692 5686 5681 5675 5669 5663 5658 5652 5646 5640 5634
5760 5760 5760 5760 5759 5759 5758 5757 5756 5755 5753 5752 5750 5749 5747 5744 5742 5739 5736 5734 5730 5727 5724 5720 5717 5713 5709 5705 5700 5695 5691 5686 5680 5675 5669 5664 5658 5652 5646 5640 5634 5629 5623
5754 5754 5753 5753 5752 5752 5751 5750 5748 5747 5746 5744 5742 5740 5738 5736 5733 5730 5727 5724 5721 5717 5714 5711 5707 5703 5699 5694 5690 5685 5680 5675 5670 5664 5659 5653 5647 5641 5635 5629 5624 5618 5613
5747 5747 5746 5746 5745 5744 5744 5742 5741 5740 5738 5736 5734 5732 5730 5727 5724 5720 5717 5714 5711 5708 5704 5701 5697 5693 5689 5685 5680 5675 5671 5666 5660 5655 5649 5644 5638 5632 5626 5621 5615 5610 5605
5741 5740 5740 5740 5739 5738 5737 5736 5735 5733 5731 5728 5726 5723 5721 5718 5715 5712 5708 5705 5702 5699 5695 5691 5688 5684 5680 5676 5671 5667 5662 5657 5652 5646 5641 5635 5630 5624 5619 5613 5608 5603 5597
5735 5734 5734 5734 5733 5732 5731 5729 5727 5725 5723 5720 5718 5715 5713 5710 5706 5703 5700 5697 5694 5690 5687 5683 5680 5676 5672 5667 5663 5658 5654 5649 5644 5639 5633 5628 5623 5617 5612 5607 5602 5596 5591
5730 5730 5729 5728 5727 5726 5724 5722 5720 5718 5715 5713 5710 5707 5705 5702 5699 5695 5692 5689 5686 5682 5679 5676 5672 5668 5664 5660 5655 5651 5646 5641 5636 5632 5627 5622 5616 5611 5606 5601 5596 5591 5586
5725 5725 5724 5722 5721 5719 5717 5715 5713 5710 5707 5705 5702 5700 5697 5694 5691 5688 5685 5682 5679 5675 5672 5668 5665 5661 5657 5653 5648 5644 5640 5635 5630 5626 5621 5616 5611 5605 5600 5595 5590 5585 5580
5720 5719 5718 5716 5714 5712 5710 5707 5705 5703 5700 5698 5695 5692 5690 5687 5684 5681 5678 5675 5672 5668 5665 5661 5658 5654 5650 5646 5642 5638 5634 5630 5625 5620 5615 5610 5605 5600 5595 5590 5585 5580 5575